GW0175 Weather Reports


time (UTC)temp
C
wind
direction
speed
KPH
gust
KPH
rain 1hr
cm
rain 24hr
cm
rain mn
cm
humidity
%
barometer
mb
20260508140811 16 165 14.5 19.3 0.00 0.00 0.00 71 1011.3
20260508140308 16 150 8.0 9.7 0.00 0.00 0.00 72 1011.4
20260508135804 15 159 11.3 14.5 0.00 0.00 0.00 74 1011.3
20260508135300 15 176 12.9 12.9 0.00 0.00 0.00 74 1011.3
20260508134756 15 166 9.7 11.3 0.00 0.00 0.00 75 1011.4
20260508134254 15 183 3.2 9.7 0.00 0.00 0.00 76 1011.3
20260508133750 14 146 4.8 6.4 0.00 0.00 0.00 78 1011.4
20260508133248 13 178 4.8 6.4 0.00 0.00 0.00 79 1011.3
20260508132745 13 186 4.8 6.4 0.00 0.00 0.00 79 1011.2
20260508132243 13 172 3.2 6.4 0.00 0.00 0.00 79 1011.3
20260508131738 13 201 3.2 3.2 0.00 0.00 0.00 80 1011.3
20260508131235 13 103 1.6 4.8 0.00 0.00 0.00 83 1011.4
20260508130731 12 81 0.0 3.2 0.00 0.00 0.00 84 1011.3
20260508130229 12 99 0.0 0.0 0.00 0.00 0.00 86 1011.1
20260508125724 11 23 1.6 3.2 0.00 0.00 0.00 86 1011.1
20260508125221 10 41 0.0 3.2 0.00 0.00 0.00 86 1011.0
20260508124719 10 35 0.0 0.0 0.00 0.00 0.00 87 1010.9
20260508124216 9 35 0.0 0.0 0.00 0.00 0.00 87 1011.0
20260508123714 8 17 4.8 4.8 0.00 0.00 0.00 87 1010.9
20260508123212 9 12 1.6 1.6 0.00 0.00 0.00 87 1011.0
20260508122708 9 0 1.6 1.6 0.00 0.00 0.00 87 1010.9
20260508122205 8 186 0.0 1.6 0.00 0.00 0.00 88 1011.0
20260508121702 9 196 0.0 3.2 0.00 0.00 0.00 88 1011.0
20260508121201 9 173 0.0 1.6 0.00 0.00 0.00 88 1011.1
20260508120658 9 188 0.0 4.8 0.00 0.00 0.00 88 1011.1
20260508120156 9 168 0.0 3.2 0.00 0.00 0.00 88 1011.2
20260508115653 9 148 4.8 8.0 0.00 0.00 0.00 88 1011.2
20260508115150 10 164 8.0 8.0 0.00 0.00 0.00 88 1011.1
20260508114647 10 168 0.0 4.8 0.00 0.00 0.00 88 1011.0
20260508114143 10 154 1.6 3.2 0.00 0.00 0.00 88 1010.7
20260508113640 10 14 0.0 1.6 0.00 0.00 0.00 88 1010.7
20260508113138 10 106 0.0 0.0 0.00 0.00 0.00 88 1010.6
20260508112629 10 29 0.0 1.6 0.00 0.00 0.00 88 1010.8
20260508112126 10 63 1.6 3.2 0.00 0.00 0.00 87 1010.6
20260508111622 10 0 3.2 3.2 0.00 0.00 0.00 87 1010.4
20260508111120 10 5 3.2 4.8 0.00 0.00 0.00 87 1010.4
20260508110618 10 26 0.0 3.2 0.00 0.00 0.00 87 1010.6
20260508110113 10 21 3.2 3.2 0.00 0.00 0.00 87 1010.7
20260508105608 10 8 0.0 0.0 0.00 0.00 0.00 87 1010.8
20260508105105 10 8 0.0 0.0 0.00 0.00 0.00 86 1010.6
20260508104603 10 4 0.0 3.2 0.00 0.00 0.00 86 1010.3
20260508104059 10 23 0.0 0.0 0.00 0.00 0.00 86 1010.4
20260508103557 10 23 0.0 1.6 0.00 0.00 0.00 86 1010.4
20260508103054 10 14 0.0 0.0 0.00 0.00 0.00 85 1010.7
20260508102551 10 8 0.0 0.0 0.00 0.00 0.00 85 1010.2
20260508102049 10 8 0.0 3.2 0.00 0.00 0.00 84 1010.8
20260508101546 11 63 0.0 1.6 0.00 0.00 0.00 84 1010.6
20260508101043 11 277 0.0 0.0 0.00 0.00 0.00 84 1010.7
20260508100541 11 277 0.0 0.0 0.00 0.00 0.00 83 1010.4
20260508100038 11 99 0.0 1.6 0.00 0.00 0.00 83 1010.4
20260508095535 11 90 0.0 0.0 0.00 0.00 0.00 83 1010.7
20260508095032 11 90 0.0 1.6 0.00 0.00 0.00 83 1010.8
20260508094529 11 345 0.0 1.6 0.00 0.00 0.00 82 1010.8
20260508094026 11 169 1.6 1.6 0.00 0.00 0.00 82 1010.3
20260508093523 11 105 0.0 3.2 0.00 0.00 0.00 82 1010.7
20260508093021 11 287 0.0 3.2 0.00 0.00 0.00 81 1010.8
20260508092518 11 132 3.2 3.2 0.00 0.00 0.00 81 1010.8
20260508092017 11 148 0.0 4.8 0.00 0.00 0.00 81 1010.8
20260508091513 12 139 3.2 6.4 0.00 0.00 0.00 81 1010.6
20260508091010 11 41 0.0 3.2 0.00 0.00 0.00 80 1010.7
20260508090508 12 105 0.0 3.2 0.00 0.00 0.00 80 1010.7
20260508090005 12 117 0.0 3.2 0.00 0.00 0.00 80 1010.9
20260508085501 12 111 0.0 3.2 0.00 0.00 0.00 79 1010.9
20260508084958 12 90 1.6 4.8 0.00 0.00 0.00 78 1010.4
20260508084454 12 151 3.2 4.8 0.00 0.00 0.00 78 1010.7
20260508083952 13 124 0.0 3.2 0.00 0.00 0.00 77 1010.9
20260508083449 13 246 0.0 4.8 0.00 0.00 0.00 77 1011.1
20260508082944 13 154 0.0 4.8 0.00 0.00 0.00 76 1010.9
20260508082442 13 123 0.0 4.8 0.00 0.00 0.00 76 1010.9
20260508081939 13 139 3.2 4.8 0.00 0.00 0.00 75 1011.1
20260508081436 13 174 1.6 4.8 0.00 0.00 0.00 75 1011.1
20260508080932 13 180 1.6 3.2 0.00 0.00 0.00 75 1011.1
20260508080430 13 131 3.2 4.8 0.00 0.00 0.00 74 1011.0
20260508075927 14 107 6.4 6.4 0.00 0.00 0.00 73 1011.1
20260508075424 14 112 3.2 6.4 0.00 0.00 0.00 73 1011.0
20260508074922 14 110 3.2 4.8 0.00 0.00 0.00 72 1011.0
20260508074419 15 117 4.8 8.0 0.00 0.00 0.00 71 1011.1
20260508073915 15 150 8.0 12.9 0.00 0.00 0.00 70 1011.0
20260508073413 15 159 6.4 16.1 0.00 0.00 0.00 70 1011.0
20260508072910 15 173 8.0 11.3 0.00 0.00 0.00 69 1011.4
20260508072406 15 179 6.4 11.3 0.00 0.00 0.00 69 1011.3
20260508071904 15 157 6.4 9.7 0.00 0.00 0.00 69 1011.5
20260508071402 15 164 8.0 9.7 0.00 0.00 0.00 68 1011.3
20260508070859 15 180 4.8 9.7 0.00 0.00 0.00 68 1011.3
20260508070357 16 175 1.6 9.7 0.00 0.00 0.00 67 1011.6
20260508065854 16 180 6.4 8.0 0.00 0.00 0.00 66 1011.6
20260508065352 16 148 4.8 12.9 0.00 0.00 0.00 66 1011.6
20260508064850 16 166 6.4 11.3 0.00 0.00 0.00 66 1011.5
20260508064347 16 180 8.0 14.5 0.00 0.00 0.00 65 1011.5
20260508063845 16 145 9.7 17.7 0.00 0.00 0.00 65 1011.6
20260508063343 16 170 4.8 16.1 0.00 0.00 0.00 64 1011.8
20260508062839 16 152 9.7 14.5 0.00 0.00 0.00 64 1011.4
20260508062337 17 183 8.0 20.9 0.00 0.00 0.00 63 1011.5
20260508061834 17 155 8.0 16.1 0.00 0.00 0.00 63 1011.3
20260508061332 17 191 9.7 14.5 0.00 0.00 0.00 62 1011.5
20260508060828 17 162 11.3 19.3 0.00 0.00 0.00 62 1011.5
20260508060326 17 156 12.9 19.3 0.00 0.00 0.00 61 1011.2
20260508055820 17 192 8.0 22.5 0.00 0.00 0.00 60 1011.3
20260508055318 17 194 6.4 19.3 0.00 0.00 0.00 60 1011.3
20260508054815 17 175 12.9 19.3 0.00 0.00 0.00 59 1011.3
20260508054312 17 155 20.9 20.9 0.00 0.00 0.00 59 1011.1
20260508053809 17 116 9.7 17.7 0.00 0.00 0.00 59 1011.3
20260508053306 17 159 8.0 17.7 0.00 0.00 0.00 59 1011.3
20260508052804 17 185 4.8 17.7 0.00 0.00 0.00 59 1011.2
20260508052301 17 187 4.8 17.7 0.00 0.00 0.00 58 1011.2
20260508051757 17 155 8.0 17.7 0.00 0.00 0.00 57 1011.2
20260508051252 18 159 12.9 22.5 0.00 0.00 0.00 57 1011.3
20260508050749 18 180 9.7 19.3 0.00 0.00 0.00 56 1011.3
20260508050246 18 179 8.0 25.7 0.00 0.00 0.00 56 1011.3
20260508045742 18 192 11.3 17.7 0.00 0.00 0.00 56 1011.4
20260508045240 18 192 11.3 20.9 0.00 0.00 0.00 56 1011.4
20260508044737 18 196 17.7 19.3 0.00 0.00 0.00 56 1011.6
20260508044234 18 179 6.4 17.7 0.00 0.00 0.00 55 1011.3
20260508043730 18 168 3.2 14.5 0.00 0.00 0.00 55 1011.6
20260508043227 18 198 4.8 17.7 0.00 0.00 0.00 55 1011.5
20260508042724 18 154 12.9 20.9 0.00 0.00 0.00 54 1011.8
20260508042221 18 177 8.0 14.5 0.00 0.00 0.00 55 1011.3
20260508041718 17 171 8.0 11.3 0.00 0.00 0.00 54 1011.8
20260508041215 17 117 6.4 11.3 0.00 0.00 0.00 54 1011.5
20260508040711 17 178 4.8 6.4 0.00 0.00 0.00 54 1011.6
20260508040208 18 155 4.8 4.8 0.00 0.00 0.00 53 1011.3
20260508035706 18 166 3.2 4.8 0.00 0.00 0.00 53 1011.6
20260508035203 18 156 3.2 6.4 0.00 0.00 0.00 52 1011.6
20260508034659 18 180 3.2 6.4 0.00 0.00 0.00 52 1011.5
20260508034156 18 186 1.6 3.2 0.00 0.00 0.00 53 1011.8
20260508033653 18 169 3.2 4.8 0.00 0.00 0.00 53 1011.3
20260508033152 18 165 1.6 3.2 0.00 0.00 0.00 52 1011.4
20260508032649 18 132 0.0 3.2 0.00 0.00 0.00 52 1011.3
20260508032146 18 236 3.2 4.8 0.00 0.00 0.00 51 1011.2
20260508031643 18 206 3.2 6.4 0.00 0.00 0.00 51 1011.2
20260508031139 18 151 4.8 6.4 0.00 0.00 0.00 51 1011.2
20260508030635 18 153 4.8 8.0 0.00 0.00 0.00 51 1011.0
20260508030133 18 183 4.8 8.0 0.00 0.00 0.00 51 1011.0
20260508025629 18 152 4.8 8.0 0.00 0.00 0.00 50 1010.9
20260508025127 18 151 4.8 6.4 0.00 0.00 0.00 50 1010.9
20260508024622 18 156 3.2 8.0 0.00 0.00 0.00 50 1011.1
20260508024120 19 159 4.8 6.4 0.00 0.00 0.00 49 1011.0
20260508023616 19 148 0.0 4.8 0.00 0.00 0.00 50 1010.9
20260508023114 19 104 4.8 4.8 0.00 0.00 0.00 49 1010.8
20260508022609 19 144 0.0 4.8 0.00 0.00 0.00 48 1010.6
20260508022107 20 157 1.6 4.8 0.00 0.00 0.00 47 1010.8
20260508021602 20 152 3.2 4.8 0.00 0.00 0.00 47 1010.9
20260508021058 20 135 3.2 6.4 0.00 0.00 0.00 46 1010.4
20260508020556 20 157 8.0 11.3 0.00 0.00 0.00 45 1010.6
20260508020054 21 180 4.8 12.9 0.00 0.00 0.00 44 1010.4
20260508015551 21 163 9.7 16.1 0.00 0.00 0.00 43 1010.6
20260508015048 21 147 6.4 17.7 0.00 0.00 0.00 42 1010.1
20260508014544 21 172 11.3 16.1 0.00 0.00 0.00 42 1010.2
20260508014040 21 155 8.0 20.9 0.00 0.00 0.00 42 1010.1
20260508013536 21 161 14.5 20.9 0.00 0.00 0.00 41 1010.1
20260508013034 21 151 9.7 24.1 0.00 0.00 0.00 41 1010.2
20260508012531 22 154 12.9 24.1 0.00 0.00 0.00 41 1010.0
20260508012028 22 156 14.5 24.1 0.00 0.00 0.00 40 1010.2
20260508011527 22 164 11.3 20.9 0.00 0.00 0.00 40 1010.1
20260508011023 22 172 17.7 24.1 0.00 0.00 0.00 40 1010.2
20260508010520 22 161 19.3 20.9 0.00 0.00 0.00 39 1010.1
20260508010018 22 179 11.3 20.9 0.00 0.00 0.00 38 1010.3
20260508005514 22 181 14.5 19.3 0.00 0.00 0.00 38 1010.2
20260508005011 23 183 11.3 20.9 0.00 0.00 0.00 38 1010.2
20260508004507 23 183 8.0 16.1 0.00 0.00 0.00 37 1010.3
20260508004004 23 190 4.8 16.1 0.00 0.00 0.00 37 1010.3
20260508003500 23 200 4.8 27.4 0.00 0.00 0.00 36 1010.2
20260508002958 23 178 14.5 17.7 0.00 0.00 0.00 36 1010.4
20260508002454 23 166 12.9 17.7 0.00 0.00 0.00 35 1010.2
20260508001950 23 178 12.9 17.7 0.00 0.00 0.00 36 1010.3
20260508001446 23 162 11.3 17.7 0.00 0.00 0.00 36 1010.2
20260508000943 24 179 8.0 17.7 0.00 0.00 0.00 35 1010.6
20260508000439 24 168 1.6 17.7 0.00 0.00 0.00 35 1010.3
20260507235936 24 226 0.0 16.1 0.00 0.00 0.00 35 1010.7
20260507235433 24 154 3.2 11.3 0.00 0.00 0.00 34 1010.3
20260507234931 24 166 11.3 17.7 0.00 0.00 0.00 34 1010.4
20260507234427 24 179 9.7 14.5 0.00 0.00 0.00 34 1010.3
20260507233923 24 147 4.8 22.5 0.00 0.00 0.00 34 1010.6
20260507233420 24 166 9.7 17.7 0.00 0.00 0.00 34 1010.4
20260507232919 24 175 11.3 17.7 0.00 0.00 0.00 34 1010.6
20260507232415 23 171 16.1 17.7 0.00 0.00 0.00 33 1010.4
20260507231912 24 159 8.0 14.5 0.00 0.00 0.00 34 1010.6
20260507231409 24 169 9.7 11.3 0.00 0.00 0.00 34 1010.6
20260507230905 23 155 4.8 16.1 0.00 0.00 0.00 35 1010.6
20260507230403 23 181 9.7 17.7 0.00 0.00 0.00 34 1010.9
20260507225902 23 195 8.0 19.3 0.00 0.00 0.00 34 1010.8
20260507225359 23 181 8.0 11.3 0.00 0.00 0.00 34 1010.8
20260507224855 23 158 9.7 24.1 0.00 0.00 0.00 33 1010.9
20260507224351 23 189 9.7 17.7 0.00 0.00 0.00 34 1010.9
20260507223848 23 159 14.5 17.7 0.00 0.00 0.00 33 1011.2
20260507223344 23 182 6.4 14.5 0.00 0.00 0.00 33 1011.2
20260507222841 23 171 12.9 17.7 0.00 0.00 0.00 34 1011.3
20260507222337 24 174 6.4 14.5 0.00 0.00 0.00 34 1011.4
20260507221835 23 155 4.8 16.1 0.00 0.00 0.00 34 1011.4
20260507221331 23 157 9.7 17.7 0.00 0.00 0.00 34 1011.4
20260507220827 23 223 6.4 14.5 0.00 0.00 0.00 35 1011.5
20260507220326 23 177 4.8 17.7 0.00 0.00 0.00 35 1011.6
20260507215821 23 218 4.8 16.1 0.00 0.00 0.00 34 1011.8
20260507215319 23 130 0.0 16.1 0.00 0.00 0.00 37 1011.6
20260507214816 23 166 9.7 14.5 0.00 0.00 0.00 35 1011.8
20260507214313 23 180 8.0 14.5 0.00 0.00 0.00 35 1011.5
20260507213808 23 140 4.8 12.9 0.00 0.00 0.00 34 1012.1
20260507213306 23 164 8.0 12.9 0.00 0.00 0.00 35 1012.1
20260507212802 23 200 11.3 17.7 0.00 0.00 0.00 36 1012.3
20260507212258 23 167 8.0 9.7 0.00 0.00 0.00 36 1012.2
20260507211755 22 86 8.0 8.0 0.00 0.00 0.00 37 1012.2
20260507211251 22 175 14.5 20.9 0.00 0.00 0.00 37 1012.3
20260507210748 22 138 4.8 11.3 0.00 0.00 0.00 37 1012.4
20260507210245 22 254 0.0 14.5 0.00 0.00 0.00 38 1012.5
20260507205742 22 176 6.4 14.5 0.00 0.00 0.00 36 1012.5
20260507205239 22 196 11.3 16.1 0.00 0.00 0.00 37 1013.0
20260507204735 22 157 3.2 11.3 0.00 0.00 0.00 38 1012.9
20260507204233 22 70 3.2 9.7 0.00 0.00 0.00 37 1012.7
20260507203730 22 150 6.4 14.5 0.00 0.00 0.00 36 1013.0
20260507203227 21 248 4.8 11.3 0.00 0.00 0.00 39 1013.4
20260507202724 22 219 4.8 8.0 0.00 0.00 0.00 38 1013.4
20260507202220 21 196 4.8 9.7 0.00 0.00 0.00 39 1013.4
20260507201714 21 170 11.3 17.7 0.00 0.00 0.00 39 1013.5
20260507201212 22 237 4.8 11.3 0.00 0.00 0.00 38 1013.7
20260507200708 21 282 3.2 8.0 0.00 0.00 0.00 39 1013.9
20260507200204 21 163 6.4 16.1 0.00 0.00 0.00 41 1013.8
20260507195701 21 163 4.8 8.0 0.00 0.00 0.00 40 1013.9
20260507195158 20 254 6.4 6.4 0.00 0.00 0.00 42 1014.2
20260507194655 20 161 11.3 16.1 0.00 0.00 0.00 41 1014.4
20260507194150 20 274 4.8 8.0 0.00 0.00 0.00 43 1014.2
20260507193647 20 270 1.6 9.7 0.00 0.00 0.00 44 1014.5
20260507193145 20 160 1.6 12.9 0.00 0.00 0.00 44 1014.6
20260507192640 20 172 3.2 8.0 0.00 0.00 0.00 44 1014.3
20260507192138 20 173 8.0 14.5 0.00 0.00 0.00 43 1014.9
20260507191633 20 250 0.0 9.7 0.00 0.00 0.00 44 1014.6
20260507191130 20 255 1.6 11.3 0.00 0.00 0.00 45 1014.9
20260507190627 20 233 6.4 14.5 0.00 0.00 0.00 45 1014.7
20260507190126 19 106 0.0 9.7 0.00 0.00 0.00 45 1015.3
20260507185625 20 222 8.0 12.9 0.00 0.00 0.00 45 1014.8
20260507185120 18 194 8.0 17.7 0.00 0.00 0.00 47 1015.1
20260507184619 19 212 4.8 14.5 0.00 0.00 0.00 45 1015.4
20260507184116 19 262 4.8 6.4 0.00 0.00 0.00 47 1015.4
20260507183612 18 236 8.0 9.7 0.00 0.00 0.00 47 1015.7
20260507183109 18 121 3.2 4.8 0.00 0.00 0.00 47 1015.6
20260507182605 17 225 3.2 11.3 0.00 0.00 0.00 49 1015.8
20260507182102 18 188 4.8 11.3 0.00 0.00 0.00 48 1015.8
20260507181559 18 151 1.6 6.4 0.00 0.00 0.00 49 1016.0
20260507181055 17 180 9.7 16.1 0.00 0.00 0.00 49 1016.2
20260507180551 18 33 3.2 8.0 0.00 0.00 0.00 48 1016.2
20260507180048 18 131 4.8 4.8 0.00 0.00 0.00 49 1016.1
20260507175544 18 121 0.0 4.8 0.00 0.00 0.00 47 1016.5
20260507175042 18 15 3.2 9.7 0.00 0.00 0.00 48 1016.3
20260507174539 17 23 6.4 6.4 0.00 0.00 0.00 50 1016.5
20260507174037 17 79 4.8 16.1 0.00 0.00 0.00 50 1016.6
20260507173533 16 195 3.2 16.1 0.00 0.00 0.00 51 1016.9
20260507173031 16 232 0.0 11.3 0.00 0.00 0.00 52 1016.7
20260507172526 16 259 11.3 11.3 0.00 0.00 0.00 52 1016.9
20260507172024 17 210 3.2 8.0 0.00 0.00 0.00 49 1016.9
20260507171519 16 283 3.2 8.0 0.00 0.00 0.00 52 1017.0
20260507171017 16 21 3.2 9.7 0.00 0.00 0.00 52 1017.2
20260507170513 16 346 0.0 4.8 0.00 0.00 0.00 52 1017.2
20260507170010 16 233 4.8 11.3 0.00 0.00 0.00 53 1017.2
20260507165506 16 315 3.2 11.3 0.00 0.00 0.00 53 1017.4
20260507165003 16 21 0.0 6.4 0.00 0.00 0.00 53 1017.4
20260507164459 16 15 1.6 6.4 0.00 0.00 0.00 52 1017.7
20260507163955 15 31 11.3 14.5 0.00 0.00 0.00 55 1017.6
20260507163453 16 36 3.2 4.8 0.00 0.00 0.00 53 1017.9
20260507162950 15 63 0.0 8.0 0.00 0.00 0.00 55 1017.7
20260507162445 15 353 3.2 6.4 0.00 0.00 0.00 54 1017.7
20260507161943 15 354 4.8 8.0 0.00 0.00 0.00 53 1017.8
20260507161439 16 145 0.0 8.0 0.00 0.00 0.00 52 1018.2
20260507160936 15 96 3.2 6.4 0.00 0.00 0.00 54 1018.0
20260507160432 13 22 4.8 12.9 0.00 0.00 0.00 57 1018.4
20260507155927 14 78 3.2 8.0 0.00 0.00 0.00 56 1018.3
20260507155424 13 31 9.7 11.3 0.00 0.00 0.00 57 1018.5
20260507154921 14 71 1.6 12.9 0.00 0.00 0.00 57 1018.4
20260507154417 13 38 6.4 9.7 0.00 0.00 0.00 56 1018.3
20260507153915 13 157 0.0 12.9 0.00 0.00 0.00 58 1018.5
20260507153411 13 32 8.0 14.5 0.00 0.00 0.00 57 1018.9
20260507152908 12 11 8.0 16.1 0.00 0.00 0.00 58 1018.8
20260507152404 13 41 3.2 11.3 0.00 0.00 0.00 58 1019.0
20260507151900 13 45 9.7 14.5 0.00 0.00 0.00 58 1018.6
20260507151356 12 15 4.8 14.5 0.00 0.00 0.00 58 1018.9
20260507150854 12 32 8.0 14.5 0.00 0.00 0.00 60 1018.8
20260507150350 11 9 11.3 17.7 0.00 0.00 0.00 61 1018.8
20260507145846 12 43 8.0 14.5 0.00 0.00 0.00 62 1019.2
20260507145343 11 29 12.9 16.1 0.00 0.00 0.00 62 1019.1
20260507144840 11 33 4.8 16.1 0.00 0.00 0.00 62 1019.3
20260507144337 11 17 11.3 16.1 0.00 0.00 0.00 63 1018.9
20260507143834 11 20 14.5 19.3 0.00 0.00 0.00 63 1019.2
20260507143331 11 53 4.8 17.7 0.00 0.00 0.00 64 1019.3
20260507142827 11 15 11.3 19.3 0.00 0.00 0.00 64 1019.3
20260507142323 10 15 11.3 17.7 0.00 0.00 0.00 64 1019.2
20260507141820 10 40 16.1 19.3 0.00 0.00 0.00 65 1019.1
20260507141317 10 349 9.7 17.7 0.00 0.00 0.00 66 1019.2